QPF
0.00 0.00 0.00 0.00 0.00 0.00 0.00 0.00 0.00 0.01 0.02 0.02 0.02 0.05 0.05 0.03 0.00 0.02 0.06 0.10 0.12 0.16 0.01 0.00 0.00 0.00 0.00 0.00 0.01 0.00 0.00 0.00 0.00 0.00 0.01 0.01 0.00 0.00 0.00 0.00 0.00 0.00 0.00 0.00 0.00 0.00 0.00 0.00 0.00 0.00 0.00 0.00 0.00 0.00
0.00 0.00 0.00 0.00 0.00 0.00 0.00 0.00 0.00 0.01 0.02 0.03 0.03 0.05 0.03 0.02 0.00 0.02 0.07 0.08 0.09 0.24 0.05 0.00 0.00 0.00 0.00 0.00 0.00 0.00 0.00 0.00 0.00 0.00 0.00 0.00 0.00 0.00 0.00 0.00 0.00 0.00 0.00 0.00 0.00 0.00 0.00 0.00 0.00 0.00 0.00 0.00 0.00 0.00
0.00 0.00 0.00 0.00 0.00 0.00 0.00 0.01 0.02 0.02 0.05 0.04 0.03 0.05 0.03 0.00 0.01 0.02 0.08 0.12 0.20 0.17 0.04 0.01 0.00 0.00 0.00 0.00 0.01 0.00 0.00 0.00 0.00 0.00 0.00 0.00 0.00 0.00 0.00 0.00 0.00 0.00 0.00 0.00 0.00 0.00 0.00 0.00 0.00 0.00 0.00 0.00 0.00 0.00
0.00 0.00 0.00 0.00 0.01 0.04 0.05 0.03 0.03 0.07 0.08 0.05 0.04 0.04 0.02 0.00 0.01 0.04 0.07 0.12 0.18 0.11 0.07 0.02 0.00 0.00 0.00 0.00 0.00 0.00 0.00 0.00 0.00 0.00 0.00 0.00 0.00 0.00 0.00 0.00 0.00 0.00 0.00 0.00 0.00 0.00 0.00 0.00 0.00 0.00 0.00 0.00 0.00 0.00
0.01 0.01 0.02 0.03 0.10 0.16 0.10 0.05 0.07 0.12 0.08 0.04 0.03 0.02 0.01 0.01 0.02 0.05 0.05 0.11 0.19 0.11 0.04 0.01 0.00 0.00 0.00 0.00 0.00 0.00 0.00 0.00 0.00 0.00 0.00 0.00 0.00 0.00 0.00 0.00 0.00 0.00 0.00 0.00 0.00 0.00 0.00 0.00 0.00 0.00 0.00 0.00 0.00 0.00
0.05 0.06 0.06 0.10 0.17 0.16 0.07 0.06 0.11 0.12 0.07 0.03 0.02 0.02 0.02 0.02 0.04 0.09 0.08 0.03 0.04 0.04 0.01 0.01 0.00 0.00 0.00 0.00 0.00 0.00 0.00 0.00 0.00 0.00 0.00 0.00 0.00 0.00 0.00 0.00 0.00 0.00 0.00 0.00 0.00 0.00 0.00 0.00 0.00 0.00 0.00 0.00 0.00 0.00
0.17 0.13 0.10 0.08 0.11 0.08 0.06 0.08 0.08 0.07 0.04 0.02 0.01 0.02 0.02 0.02 0.06 0.10 0.06 0.03 0.01 0.01 0.05 0.04 0.02 0.00 0.00 0.00 0.00 0.00 0.00 0.00 0.00 0.00 0.00 0.00 0.00 0.00 0.00 0.00 0.00 0.00 0.00 0.00 0.00 0.00 0.00 0.00 0.00 0.00 0.00 0.00 0.00 0.00
0.34 0.29 0.20 0.12 0.08 0.04 0.03 0.03 0.03 0.02 0.02 0.01 0.01 0.01 0.01 0.05 0.06 0.09 0.05 0.04 0.02 0.00 0.02 0.14 0.02 0.01 0.00 0.00 0.00 0.00 0.00 0.00 0.00 0.00 0.00 0.00 0.00 0.00 0.00 0.00 0.00 0.00 0.00 0.00 0.00 0.00 0.00 0.00 0.00 0.00 0.00 0.00 0.00 0.00
0.32 0.24 0.16 0.09 0.05 0.04 0.03 0.03 0.04 0.02 0.02 0.02 0.02 0.02 0.03 0.12 0.14 0.11 0.03 0.02 0.01 0.00 0.01 0.12 0.16 0.01 0.00 0.01 0.01 0.01 0.01 0.01 0.01 0.00 0.00 0.00 0.00 0.00 0.00 0.00 0.00 0.00 0.00 0.00 0.00 0.00 0.00 0.00 0.00 0.00 0.00 0.00 0.00 0.00
0.04 0.05 0.05 0.05 0.05 0.04 0.04 0.05 0.04 0.02 0.02 0.02 0.02 0.04 0.13 0.23 0.13 0.05 0.01 0.01 0.01 0.00 0.00 0.01 0.09 0.02 0.01 0.02 0.04 0.03 0.02 0.02 0.01 0.01 0.01 0.00 0.00 0.00 0.00 0.00 0.00 0.00 0.00 0.00 0.00 0.00 0.00 0.00 0.00 0.00 0.00 0.00 0.00 0.00
0.07 0.06 0.03 0.03 0.03 0.04 0.05 0.03 0.02 0.01 0.02 0.04 0.02 0.04 0.04 0.07 0.05 0.02 0.00 0.00 0.00 0.00 0.00 0.00 0.01 0.01 0.01 0.03 0.04 0.02 0.01 0.01 0.00 0.00 0.00 0.00 0.00 0.00 0.00 0.00 0.00 0.00 0.00 0.00 0.00 0.00 0.00 0.00 0.00 0.00 0.00 0.00 0.00 0.00
0.03 0.07 0.06 0.04 0.03 0.04 0.04 0.01 0.01 0.00 0.01 0.02 0.00 0.01 0.02 0.02 0.01 0.01 0.01 0.00 0.00 0.00 0.00 0.00 0.00 0.00 0.00 0.00 0.01 0.01 0.00 0.00 0.00 0.00 0.00 0.00 0.00 0.00 0.00 0.00 0.00 0.00 0.00 0.00 0.00 0.00 0.00 0.00 0.00 0.00 0.00 0.00 0.00 0.00
0.01 0.06 0.12 0.08 0.05 0.05 0.04 0.01 0.00 0.00 0.00 0.00 0.01 0.04 0.05 0.01 0.02 0.00 0.00 0.00 0.00 0.00 0.00 0.00 0.00 0.00 0.00 0.00 0.00 0.00 0.00 0.00 0.00 0.00 0.00 0.00 0.00 0.00 0.00 0.00 0.00 0.00 0.00 0.00 0.00 0.00 0.00 0.00 0.00 0.00 0.00 0.00 0.00 0.00
0.00 0.01 0.03 0.04 0.06 0.05 0.01 0.00 0.00 0.00 0.00 0.00 0.02 0.03 0.04 0.01 0.00 0.00 0.00 0.00 0.00 0.00 0.00 0.00 0.00 0.00 0.00 0.00 0.00 0.00 0.00 0.00 0.00 0.00 0.00 0.00 0.00 0.00 0.00 0.00 0.00 0.00 0.00 0.00 0.00 0.00 0.00 0.00 0.00 0.00 0.00 0.00 0.00 0.00
0.01 0.00 0.01 0.01 0.03 0.04 0.02 0.01 0.00 0.01 0.00 0.00 0.01 0.01 0.01 0.00 0.00 0.00 0.00 0.00 0.00 0.00 0.00 0.00 0.00 0.00 0.00 0.00 0.00 0.00 0.00 0.00 0.00 0.00 0.00 0.00 0.00 0.00 0.00 0.00 0.00 0.00 0.00 0.00 0.00 0.00 0.00 0.00 0.00 0.00 0.00 0.00 0.00 0.00
0.01 0.00 0.01 0.01 0.00 0.00 0.01 0.01 0.01 0.04 0.04 0.01 0.01 0.01 0.00 0.00 0.00 0.00 0.00 0.00 0.00 0.00 0.00 0.00 0.00 0.00 0.00 0.00 0.00 0.00 0.00 0.00 0.00 0.00 0.00 0.00 0.00 0.00 0.00 0.00 0.00 0.00 0.00 0.00 0.00 0.00 0.00 0.00 0.00 0.00 0.00 0.00 0.00 0.00
0.00 0.00 0.01 0.00 0.02 0.01 0.02 0.02 0.03 0.06 0.09 0.06 0.03 0.01 0.01 0.00 0.01 0.00 0.00 0.00 0.00 0.00 0.00 0.00 0.00 0.00 0.00 0.00 0.00 0.00 0.00 0.00 0.00 0.00 0.01 0.00 0.00 0.00 0.00 0.00 0.00 0.00 0.00 0.00 0.00 0.00 0.00 0.00 0.00 0.00 0.00 0.00 0.00 0.00
0.00 0.00 0.00 0.00 0.02 0.03 0.05 0.06 0.04 0.04 0.05 0.05 0.03 0.02 0.02 0.02 0.02 0.02 0.01 0.00 0.00 0.00 0.00 0.00 0.00 0.00 0.00 0.00 0.00 0.00 0.00 0.00 0.01 0.01 0.01 0.00 0.00 0.00 0.00 0.00 0.00 0.00 0.00 0.00 0.00 0.00 0.00 0.00 0.00 0.00 0.00 0.00 0.00 0.00
0.00 0.00 0.00 0.00 0.00 0.02 0.03 0.02 0.01 0.00 0.02 0.03 0.04 0.03 0.01 0.01 0.01 0.01 0.00 0.00 0.00 0.00 0.00 0.00 0.00 0.00 0.01 0.00 0.00 0.00 0.00 0.00 0.01 0.01 0.01 0.00 0.00 0.00 0.00 0.00 0.00 0.00 0.00 0.00 0.00 0.00 0.00 0.00 0.00 0.00 0.00 0.00 0.00 0.00
0.00 0.00 0.00 0.00 0.00 0.01 0.02 0.02 0.01 0.01 0.03 0.02 0.03 0.03 0.02 0.03 0.04 0.03 0.01 0.00 0.00 0.00 0.00 0.01 0.02 0.02 0.01 0.01 0.00 0.00 0.00 0.00 0.00 0.01 0.02 0.02 0.01 0.01 0.01 0.01 0.01 0.00 0.00 0.00 0.00 0.00 0.00 0.00 0.00 0.00 0.00 0.00 0.00 0.00
0.00 0.00 0.00 0.00 0.00 0.00 0.01 0.02 0.03 0.03 0.03 0.03 0.04 0.03 0.04 0.03 0.04 0.03 0.02 0.00 0.00 0.01 0.02 0.03 0.03 0.03 0.02 0.01 0.00 0.00 0.00 0.00 0.00 0.00 0.00 0.01 0.01 0.00 0.00 0.00 0.00 0.00 0.00 0.00 0.00 0.00 0.00 0.00 0.00 0.00 0.00 0.00 0.00 0.00
0.00 0.00 0.00 0.00 0.00 0.00 0.00 0.00 0.02 0.01 0.01 0.02 0.01 0.01 0.02 0.02 0.02 0.01 0.00 0.00 0.01 0.02 0.02 0.02 0.01 0.01 0.00 0.00 0.00 0.00 0.00 0.00 0.00 0.00 0.00 0.00 0.00 0.00 0.00 0.00 0.00 0.00 0.00 0.00 0.00 0.00 0.00 0.00 0.00 0.00 0.00 0.00 0.00 0.00
0.00 0.00 0.00 0.00 0.00 0.00 0.00 0.00 0.00 0.00 0.01 0.01 0.00 0.00 0.01 0.01 0.00 0.00 0.00 0.01 0.02 0.02 0.02 0.01 0.00 0.00 0.00 0.00 0.00 0.00 0.00 0.00 0.00 0.01 0.00 0.00 0.00 0.00 0.00 0.00 0.00 0.00 0.00 0.00 0.00 0.00 0.00 0.00 0.00 0.00 0.00 0.00 0.00 0.00
0.00 0.00 0.00 0.00 0.00 0.00 0.00 0.00 0.00 0.00 0.00 0.00 0.00 0.00 0.01 0.00 0.00 0.00 0.01 0.02 0.03 0.02 0.01 0.01 0.01 0.01 0.01 0.00 0.00 0.00 0.00 0.00 0.00 0.00 0.00 0.00 0.00 0.00 0.00 0.00 0.00 0.00 0.00 0.00 0.00 0.00 0.00 0.00 0.00 0.00 0.00 0.00 0.00 0.00
0.00 0.00 0.00 0.00 0.00 0.00 0.00 0.00 0.00 0.00 0.00 0.00 0.00 0.00 0.00 0.00 0.00 0.01 0.01 0.03 0.02 0.02 0.03 0.03 0.02 0.03 0.02 0.02 0.02 0.02 0.01 0.00 0.00 0.00 0.00 0.00 0.00 0.00 0.00 0.00 0.00 0.00 0.00 0.00 0.00 0.00 0.00 0.00 0.00 0.00 0.00 0.00 0.00 0.00
0.00 0.00 0.00 0.00 0.00 0.00 0.00 0.00 0.00 0.00 0.00 0.00 0.00 0.00 0.00 0.01 0.00 0.01 0.01 0.02 0.02 0.01 0.01 0.02 0.04 0.01 0.02 0.02 0.03 0.03 0.03 0.01 0.00 0.00 0.00 0.00 0.00 0.00 0.00 0.00 0.00 0.00 0.00 0.00 0.00 0.00 0.00 0.00 0.00 0.00 0.00 0.00 0.00 0.00
0.00 0.00 0.00 0.00 0.00 0.00 0.00 0.00 0.00 0.00 0.01 0.01 0.01 0.01 0.01 0.01 0.01 0.01 0.01 0.01 0.01 0.02 0.01 0.02 0.02 0.02 0.03 0.03 0.03 0.03 0.01 0.00 0.00 0.00 0.00 0.00 0.00 0.00 0.00 0.00 0.00 0.00 0.00 0.00 0.00 0.00 0.00 0.00 0.00 0.00 0.00 0.00 0.00 0.00
0.00 0.00 0.00 0.00 0.00 0.00 0.00 0.01 0.01 0.01 0.01 0.00 0.02 0.01 0.01 0.01 0.01 0.01 0.02 0.02 0.01 0.01 0.01 0.01 0.02 0.02 0.03 0.03 0.03 0.03 0.02 0.00 0.00 0.00 0.00 0.00 0.00 0.00 0.00 0.00 0.00 0.00 0.00 0.00 0.00 0.00 0.00 0.00 0.00 0.00 0.00 0.00 0.00 0.00
0.00 0.00 0.00 0.00 0.00 0.00 0.01 0.02 0.01 0.01 0.01 0.01 0.01 0.01 0.01 0.01 0.02 0.02 0.01 0.01 0.01 0.01 0.01 0.01 0.02 0.02 0.01 0.01 0.00 0.00 0.00 0.00 0.00 0.00 0.00 0.00 0.00 0.01 0.00 0.00 0.00 0.00 0.00 0.00 0.00 0.00 0.00 0.00 0.00 0.00 0.00 0.00 0.00 0.00
0.00 0.00 0.01 0.00 0.01 0.01 0.02 0.01 0.01 0.01 0.01 0.00 0.00 0.00 0.00 0.01 0.01 0.01 0.01 0.01 0.01 0.01 0.01 0.01 0.01 0.00 0.01 0.00 0.00 0.00 0.00 0.00 0.00 0.00 0.00 0.00 0.00 0.00 0.00 0.00 0.00 0.00 0.00 0.00 0.00 0.00 0.00 0.00 0.00 0.00 0.00 0.00 0.00 0.00
0.00 0.00 0.00 0.01 0.01 0.02 0.02 0.01 0.00 0.00 0.00 0.00 0.00 0.00 0.01 0.01 0.01 0.01 0.01 0.02 0.01 0.01 0.01 0.00 0.00 0.00 0.00 0.00 0.00 0.00 0.00 0.00 0.00 0.00 0.00 0.00 0.00 0.00 0.00 0.00 0.00 0.00 0.00 0.00 0.00 0.00 0.00 0.00 0.00 0.00 0.00 0.00 0.00 0.00
0.00 0.00 0.00 0.01 0.01 0.01 0.01 0.04 0.04 0.01 0.01 0.01 0.01 0.01 0.01 0.01 0.01 0.01 0.00 0.01 0.01 0.00 0.00 0.00 0.00 0.00 0.00 0.00 0.00 0.00 0.00 0.00 0.00 0.00 0.00 0.00 0.00 0.00 0.00 0.00 0.00 0.00 0.00 0.00 0.00 0.00 0.00 0.00 0.00 0.00 0.00 0.00 0.00 0.00
0.00 0.00 0.00 0.00 0.00 0.00 0.00 0.00 0.01 0.00 0.00 0.01 0.01 0.01 0.01 0.00 0.00 0.01 0.01 0.00 0.01 0.00 0.00 0.01 0.00 0.00 0.00 0.00 0.00 0.00 0.00 0.00 0.00 0.00 0.00 0.00 0.00 0.00 0.00 0.00 0.00 0.00 0.00 0.00 0.00 0.00 0.00 0.00 0.00 0.00 0.00 0.00 0.00 0.00
MSLP
987.93 989.43 990.63 992.14 993.31 994.25 995.30 996.45 997.45 998.43 999.37 1000.27 1001.41 1002.13 1003.32 1003.72 1004.86 1005.94 1004.68 1004.91 1005.23 1002.82 999.53 999.51 999.96 1000.38 1000.35 1001.76 1002.42 1003.34 1004.92 1004.97 1005.16 1006.46 1007.62 1007.75 1007.82 1007.23 1006.84 1006.81 1008.01 1008.98 1009.82 1010.52 1010.74 1010.76 1009.52 1007.87 1008.13 1008.32 1008.70 1008.73 1009.06 1009.10
988.75 989.91 991.12 992.29 993.27 994.39 995.48 996.47 997.43 998.29 999.23 1000.12 1001.16 1002.18 1002.70 1004.08 1005.03 1005.96 1004.98 1004.20 1004.35 1003.65 1001.43 1000.65 1001.12 1001.00 1001.39 1002.11 1001.19 1002.98 1002.90 1003.57 1004.35 1005.24 1007.02 1007.50 1008.10 1008.04 1007.52 1006.94 1006.55 1007.20 1007.72 1008.47 1009.05 1008.72 1008.33 1008.05 1008.30 1008.87 1009.17 1009.49 1009.74 1010.16
989.75 990.79 991.75 992.62 993.53 994.54 995.50 996.45 997.28 998.06 998.89 999.69 1000.81 1001.68 1002.55 1003.22 1003.99 1004.71 1004.26 1003.74 1002.72 1002.02 1001.44 1001.07 1001.66 1002.05 1002.17 1002.13 1002.51 1002.24 1002.58 1002.64 1003.37 1003.81 1006.16 1007.57 1008.17 1007.79 1007.80 1006.97 1006.30 1006.57 1007.20 1007.68 1008.08 1007.61 1007.74 1008.33 1008.86 1009.49 1010.00 1010.48 1010.79 1011.15
990.40 991.20 991.96 992.83 993.87 994.63 995.41 996.16 997.03 997.70 998.33 999.60 1000.41 1001.29 1002.24 1003.04 1003.98 1004.78 1004.41 1003.24 1003.13 1002.20 1002.21 1002.97 1002.63 1002.57 1002.54 1002.49 1002.14 1002.12 1002.05 1002.79 1003.56 1004.83 1006.46 1007.72 1007.86 1007.07 1007.32 1006.76 1006.42 1006.63 1007.09 1007.54 1007.73 1007.90 1008.22 1009.43 1010.33 1011.02 1011.35 1011.74 1011.86 1012.18
990.87 991.57 992.26 993.08 993.95 994.61 995.41 996.27 997.11 997.85 998.26 999.37 1000.43 1001.29 1002.26 1003.21 1003.88 1004.37 1004.79 1003.79 1003.51 1003.65 1003.11 1003.73 1003.44 1003.51 1002.97 1002.82 1003.12 1003.13 1003.07 1003.47 1004.51 1006.09 1007.12 1007.38 1007.30 1007.66 1007.75 1007.44 1007.04 1006.83 1007.23 1007.86 1008.52 1009.26 1009.56 1010.75 1011.57 1011.92 1012.18 1012.63 1013.03 1013.48
991.09 991.76 992.38 993.14 993.71 994.42 994.98 995.95 997.00 997.82 998.37 999.31 1000.20 1001.40 1002.31 1002.89 1003.99 1005.00 1004.55 1003.01 1002.29 1002.16 1002.58 1004.34 1004.82 1004.27 1003.56 1003.51 1003.92 1003.86 1003.91 1004.08 1004.99 1006.40 1007.28 1007.60 1007.89 1007.97 1008.48 1008.08 1007.65 1007.87 1008.38 1008.96 1009.25 1010.22 1011.06 1011.98 1012.61 1012.90 1013.68 1014.30 1014.91 1015.42
991.02 991.55 992.28 993.06 993.67 994.16 994.48 995.35 996.44 997.29 998.20 999.22 1000.38 1001.31 1002.24 1002.93 1003.44 1003.56 1003.65 1003.44 1002.97 1002.48 1003.25 1005.22 1005.52 1005.45 1004.94 1004.78 1005.05 1005.28 1005.33 1005.95 1006.18 1007.39 1008.16 1008.32 1008.62 1008.79 1009.26 1008.61 1008.71 1009.23 1009.60 1010.28 1010.66 1011.16 1012.06 1012.58 1013.91 1014.81 1015.45 1016.20 1016.81 1017.41
991.15 991.59 991.92 992.87 993.43 993.81 994.58 995.36 996.51 997.57 998.65 999.46 1000.46 1001.40 1002.15 1003.05 1003.05 1003.73 1004.21 1003.31 1003.16 1002.90 1003.89 1005.72 1006.44 1006.45 1006.24 1005.93 1006.63 1006.76 1006.90 1007.31 1008.36 1008.91 1009.23 1009.23 1009.70 1009.76 1009.70 1009.53 1009.76 1010.28 1010.80 1011.31 1011.71 1012.04 1012.96 1014.17 1015.34 1016.24 1017.02 1017.66 1018.17 1018.68
991.68 991.84 992.11 992.45 993.15 993.91 994.87 995.64 996.47 997.54 998.62 999.77 1000.90 1001.91 1002.71 1002.67 1003.17 1003.55 1003.27 1003.29 1003.42 1004.01 1005.38 1006.33 1007.01 1007.11 1006.71 1007.24 1007.72 1008.23 1008.19 1009.07 1009.48 1009.53 1009.63 1009.68 1010.55 1010.75 1010.62 1010.70 1010.84 1011.37 1011.76 1012.17 1012.87 1013.57 1014.41 1015.44 1016.49 1017.25 1017.85 1018.43 1018.82 1019.17
992.36 992.59 992.83 993.15 993.63 994.34 995.13 996.06 997.11 998.13 999.13 1000.06 1000.95 1001.35 1002.85 1003.67 1004.04 1004.00 1004.84 1004.90 1005.30 1005.59 1005.90 1006.40 1006.59 1007.32 1007.49 1007.82 1008.67 1009.17 1009.41 1009.70 1009.96 1010.36 1010.07 1010.31 1011.32 1011.81 1012.07 1012.18 1012.27 1012.30 1012.57 1013.12 1014.01 1015.07 1015.88 1016.60 1017.28 1017.75 1018.17 1018.67 1019.22 1020.09
993.93 994.14 994.36 994.53 994.88 995.39 995.91 996.64 997.41 998.42 999.46 999.12 1000.01 1001.82 1003.43 1003.57 1003.90 1004.68 1005.06 1005.22 1005.74 1006.32 1006.47 1006.68 1007.02 1007.47 1007.97 1008.12 1009.19 1009.91 1010.19 1010.24 1010.28 1010.53 1010.51 1011.06 1011.78 1012.51 1012.83 1012.95 1013.00 1013.20 1013.64 1014.28 1015.01 1015.93 1016.57 1017.16 1017.72 1018.56 1019.46 1020.26 1020.98 1021.70
995.68 995.69 996.01 996.10 996.24 996.67 997.21 997.80 998.42 998.61 998.72 998.65 999.73 1001.73 1003.12 1003.28 1004.39 1005.31 1006.26 1006.65 1006.69 1007.03 1007.35 1007.32 1007.44 1007.86 1008.50 1008.52 1009.42 1010.43 1010.34 1010.54 1010.53 1010.82 1011.13 1011.52 1012.56 1012.96 1013.43 1013.81 1014.14 1014.54 1015.01 1015.74 1016.40 1016.92 1017.44 1017.98 1018.81 1019.79 1020.71 1021.43 1022.05 1022.76
997.33 997.26 997.48 997.55 997.73 998.41 998.32 998.22 998.12 998.34 998.44 998.99 1000.67 1002.93 1003.61 1004.85 1005.44 1006.28 1007.12 1007.40 1007.59 1007.78 1007.81 1007.77 1008.15 1008.68 1009.14 1009.23 1010.02 1010.33 1010.58 1010.78 1010.58 1011.21 1011.37 1012.16 1012.84 1013.46 1013.99 1014.45 1014.97 1015.50 1016.06 1016.54 1017.22 1018.09 1018.93 1019.78 1020.59 1021.27 1021.93 1022.45 1022.81 1023.48
999.05 998.95 999.01 999.02 999.01 998.83 999.50 999.22 999.01 998.98 999.40 1001.63 1003.46 1005.33 1005.95 1006.66 1006.93 1007.30 1007.59 1007.70 1008.24 1008.04 1008.01 1008.27 1008.43 1008.81 1009.36 1009.74 1010.10 1010.47 1011.39 1011.17 1011.41 1011.68 1011.89 1012.65 1013.29 1014.02 1014.59 1015.10 1015.72 1016.49 1017.18 1017.72 1018.73 1019.69 1020.41 1021.06 1021.81 1022.47 1022.99 1023.48 1023.92 1024.37
1000.03 1000.04 999.99 1000.85 1000.86 1000.25 999.27 999.56 999.31 1000.13 1002.20 1004.58 1005.91 1007.34 1008.01 1008.53 1008.52 1008.64 1008.63 1008.80 1008.81 1008.44 1008.42 1008.45 1008.58 1008.90 1009.44 1009.96 1010.46 1011.30 1011.80 1011.69 1011.50 1011.92 1012.60 1013.21 1013.92 1014.50 1015.12 1015.74 1016.71 1017.50 1018.31 1019.03 1019.86 1020.61 1021.20 1021.78 1022.35 1023.01 1023.62 1024.04 1024.62 1025.10
1000.54 1000.41 1002.12 1002.37 1001.76 1001.18 1001.00 1000.74 1001.32 1003.15 1005.29 1006.43 1007.50 1008.29 1008.77 1008.95 1009.43 1009.54 1009.61 1009.60 1009.38 1009.06 1008.62 1008.42 1008.77 1009.40 1010.02 1010.25 1010.76 1011.09 1011.55 1011.78 1012.45 1013.05 1013.61 1014.12 1014.56 1015.02 1015.63 1016.56 1017.53 1018.13 1018.97 1019.78 1020.59 1021.25 1021.84 1022.31 1022.75 1023.37 1024.03 1024.49 1024.76 1025.13
1001.41 1003.23 1003.32 1002.62 1002.29 1002.02 1001.61 1002.59 1004.65 1006.45 1007.62 1008.30 1009.05 1009.19 1009.07 1009.44 1009.89 1010.26 1010.32 1010.32 1010.02 1009.62 1009.37 1008.97 1009.28 1010.08 1010.53 1010.84 1011.50 1011.96 1012.65 1013.31 1013.84 1014.20 1014.64 1014.96 1015.28 1015.70 1016.42 1017.37 1018.13 1018.79 1019.53 1020.33 1021.04 1021.70 1022.32 1022.87 1023.30 1023.67 1024.04 1024.55 1024.80 1025.19
1003.61 1004.11 1003.61 1003.10 1002.70 1002.95 1004.52 1005.69 1006.86 1008.01 1009.14 1009.73 1009.90 1010.29 1010.47 1010.71 1011.00 1011.16 1011.16 1010.82 1010.34 1010.02 1009.80 1009.97 1010.22 1010.86 1011.37 1011.94 1012.74 1013.51 1014.26 1014.76 1015.05 1015.24 1015.53 1015.93 1016.06 1016.69 1017.45 1018.13 1018.80 1019.50 1020.35 1021.06 1021.65 1022.22 1022.72 1023.10 1023.49 1024.01 1024.41 1024.94 1025.08 1025.47
1004.83 1004.50 1003.99 1003.71 1003.57 1004.80 1006.89 1007.97 1008.14 1009.06 1010.22 1010.53 1010.89 1011.08 1011.33 1011.65 1011.72 1011.59 1011.37 1011.01 1010.75 1010.47 1010.42 1010.72 1011.61 1012.52 1013.23 1013.63 1013.98 1014.56 1015.14 1015.65 1016.10 1016.52 1016.84 1017.07 1017.38 1017.88 1018.61 1019.28 1019.88 1020.61 1021.22 1021.66 1022.10 1022.68 1023.48 1024.00 1024.54 1024.93 1025.38 1025.62 1025.83 1026.13
1004.75 1004.61 1004.44 1004.16 1003.76 1005.72 1007.84 1008.88 1008.74 1009.52 1010.56 1011.31 1011.33 1011.55 1011.86 1012.22 1012.34 1012.19 1012.05 1011.87 1011.67 1011.78 1012.73 1013.61 1014.69 1015.34 1015.35 1015.35 1015.13 1015.41 1015.93 1016.40 1016.76 1017.33 1018.13 1018.68 1019.03 1019.43 1020.00 1020.52 1021.15 1021.84 1022.37 1022.92 1023.32 1023.48 1023.87 1024.59 1025.34 1025.85 1026.26 1026.40 1026.57 1026.69
1004.92 1005.35 1004.87 1004.67 1005.34 1006.62 1008.56 1009.30 1010.00 1010.62 1011.00 1011.42 1011.75 1011.88 1012.34 1012.51 1012.71 1012.81 1012.98 1013.10 1013.46 1014.90 1015.78 1016.42 1016.48 1016.55 1016.48 1016.10 1016.11 1016.20 1016.70 1016.93 1017.36 1017.70 1018.57 1019.40 1020.05 1020.45 1021.01 1021.50 1021.88 1022.18 1022.81 1023.42 1023.99 1024.85 1025.23 1025.73 1026.33 1026.67 1026.80 1026.90 1027.17 1027.09
1006.23 1006.05 1006.01 1006.37 1007.47 1008.51 1009.48 1010.15 1010.46 1010.90 1011.33 1011.74 1011.88 1012.18 1012.62 1013.02 1013.37 1013.73 1013.96 1014.72 1016.53 1017.56 1017.66 1017.68 1017.56 1017.62 1017.66 1017.61 1017.76 1017.81 1017.97 1018.13 1018.43 1018.74 1019.38 1020.09 1020.67 1021.31 1021.86 1022.37 1022.88 1023.52 1024.14 1024.65 1025.16 1025.69 1026.07 1026.76 1027.25 1027.37 1027.37 1027.46 1027.38 1027.13
1006.81 1006.84 1007.68 1008.37 1009.14 1010.00 1011.26 1010.41 1010.70 1011.08 1011.47 1011.97 1012.16 1012.63 1013.24 1013.77 1014.30 1014.33 1015.58 1017.26 1018.57 1019.30 1019.23 1019.07 1018.99 1019.01 1019.09 1019.23 1019.24 1019.39 1019.51 1019.77 1020.17 1020.60 1021.05 1021.57 1022.10 1022.61 1023.18 1023.69 1024.11 1024.54 1025.21 1025.87 1026.12 1026.51 1027.03 1027.50 1027.60 1027.88 1027.76 1027.69 1027.58 1027.33
1008.08 1009.20 1009.98 1010.39 1010.93 1011.73 1011.78 1011.60 1011.54 1011.78 1012.13 1012.39 1012.88 1013.59 1014.33 1014.73 1014.91 1015.50 1017.38 1019.16 1019.98 1020.05 1020.08 1020.19 1020.14 1020.22 1020.52 1020.86 1021.17 1021.43 1021.37 1021.30 1021.63 1022.01 1022.34 1022.70 1023.28 1024.00 1024.61 1025.25 1025.84 1026.32 1026.57 1026.75 1027.03 1027.34 1027.55 1027.86 1028.08 1028.00 1027.93 1027.98 1027.79 1027.72
1009.60 1012.14 1011.95 1012.09 1012.18 1012.18 1012.33 1012.60 1012.66 1012.64 1013.06 1013.28 1013.79 1014.57 1015.23 1015.37 1015.84 1017.23 1019.09 1020.75 1021.65 1021.85 1021.80 1021.35 1021.26 1021.45 1021.90 1022.56 1023.08 1023.36 1023.35 1023.07 1023.33 1023.73 1024.16 1024.34 1024.74 1025.25 1025.78 1026.50 1027.16 1027.64 1027.76 1027.71 1027.91 1028.10 1028.23 1028.33 1028.30 1028.33 1028.37 1028.24 1028.06 1027.98
1012.28 1013.78 1013.78 1013.66 1013.58 1013.21 1013.33 1013.50 1013.71 1013.95 1014.04 1014.44 1015.38 1015.90 1016.04 1016.41 1017.76 1019.93 1021.76 1023.01 1023.54 1023.93 1023.95 1023.58 1022.90 1023.46 1024.04 1024.36 1024.69 1025.03 1025.23 1024.88 1025.03 1025.41 1025.99 1026.05 1026.02 1026.02 1026.44 1026.97 1027.57 1028.41 1028.78 1028.85 1028.88 1028.84 1028.74 1028.72 1028.75 1028.70 1028.53 1028.30 1028.14 1028.00
1014.04 1014.60 1014.87 1014.90 1014.59 1014.43 1014.66 1014.90 1014.78 1014.87 1015.17 1015.56 1016.20 1016.57 1017.14 1018.30 1020.54 1022.52 1024.05 1024.97 1025.12 1025.63 1025.75 1025.53 1025.17 1025.24 1025.61 1026.04 1026.41 1026.64 1026.75 1026.58 1026.53 1026.94 1027.34 1027.63 1027.82 1027.98 1028.18 1028.51 1029.16 1029.93 1029.69 1029.56 1029.62 1029.59 1029.50 1029.30 1029.12 1028.92 1028.72 1028.42 1028.20 1028.16
1015.68 1015.96 1015.76 1015.89 1015.55 1015.47 1015.53 1015.70 1016.12 1016.83 1017.24 1017.70 1017.63 1018.88 1020.11 1021.61 1023.59 1024.96 1025.68 1026.20 1026.49 1026.67 1026.83 1027.01 1027.12 1027.11 1027.16 1027.28 1027.39 1027.45 1027.60 1027.76 1027.79 1027.88 1028.09 1028.30 1028.58 1028.95 1029.26 1029.53 1029.97 1030.16 1030.10 1030.01 1030.08 1029.87 1029.78 1029.62 1029.47 1029.23 1028.90 1028.69 1028.63 1028.52
1016.80 1016.80 1016.48 1016.58 1016.40 1016.87 1017.40 1017.61 1018.47 1019.49 1019.94 1019.33 1019.76 1021.80 1023.57 1025.39 1026.44 1026.56 1026.91 1027.04 1027.05 1027.09 1027.22 1027.45 1027.76 1027.98 1028.23 1028.42 1028.56 1028.71 1028.76 1028.55 1028.14 1028.35 1028.56 1028.75 1028.96 1029.51 1029.79 1029.88 1029.81 1029.79 1029.78 1029.84 1029.79 1029.74 1029.49 1029.44 1029.28 1029.23 1029.10 1028.90 1028.85 1028.60
1017.61 1017.38 1016.97 1017.31 1017.54 1018.28 1019.38 1019.92 1020.80 1021.25 1021.16 1021.48 1022.77 1024.70 1025.95 1027.11 1028.05 1028.13 1028.04 1028.01 1028.00 1028.24 1028.47 1028.55 1028.69 1028.62 1028.62 1028.71 1029.13 1029.68 1030.11 1030.34 1030.40 1030.35 1030.23 1030.33 1030.44 1030.41 1030.20 1030.03 1030.07 1030.05 1029.99 1029.91 1029.81 1029.64 1029.52 1029.32 1029.23 1029.03 1028.75 1028.57 1028.41 1028.38
1018.38 1017.88 1017.92 1018.24 1019.03 1019.84 1020.43 1021.06 1021.43 1021.95 1022.43 1023.09 1023.61 1024.67 1026.02 1027.59 1028.79 1029.41 1029.45 1029.18 1029.10 1028.99 1029.03 1029.39 1029.78 1029.93 1030.00 1030.11 1030.13 1030.29 1030.53 1030.92 1031.22 1031.38 1031.56 1031.32 1031.03 1030.75 1030.48 1030.38 1030.20 1030.12 1030.04 1029.97 1029.90 1029.79 1029.61 1029.37 1029.15 1029.03 1028.87 1028.71 1028.62 1028.59
1019.08 1019.12 1018.84 1018.99 1020.00 1020.72 1020.75 1020.76 1021.19 1022.11 1022.98 1023.88 1024.63 1025.49 1026.19 1026.83 1028.44 1030.08 1030.80 1030.12 1030.02 1030.20 1030.49 1030.46 1030.57 1030.98 1031.25 1031.10 1031.08 1031.34 1031.60 1031.43 1031.46 1031.76 1031.76 1031.83 1031.68 1031.52 1031.21 1030.91 1030.65 1030.31 1030.08 1030.01 1029.92 1029.75 1029.54 1029.35 1029.13 1028.97 1028.88 1028.77 1028.80 1028.91
1019.80 1019.90 1019.93 1019.96 1020.43 1020.69 1021.34 1021.33 1021.72 1022.88 1023.70 1024.52 1025.56 1026.22 1027.02 1027.86 1029.33 1030.66 1031.40 1031.60 1031.60 1031.57 1031.59 1031.57 1031.54 1031.54 1031.65 1031.66 1031.73 1031.63 1031.60 1031.53 1031.76 1031.66 1031.68 1031.91 1032.11 1031.97 1031.79 1031.31 1031.09 1030.91 1030.68 1030.39 1030.09 1029.89 1029.57 1029.28 1029.08 1028.98 1028.99 1029.07 1029.10 1029.15
Thickness
5356 5354 5354 5354 5355 5358 5360 5362 5363 5366 5372 5386 5401 5425 5442 5461 5474 5487 5519 5529 5539 5567 5598 5607 5617 5614 5621 5614 5601 5613 5600 5607 5613 5593 5584 5605 5600 5619 5620 5627 5599 5588 5585 5570 5583 5564 5570 5628 5617 5605 5608 5613 5609 5608
5354 5354 5354 5355 5356 5358 5359 5359 5359 5364 5369 5386 5404 5426 5447 5456 5471 5484 5512 5536 5544 5553 5574 5590 5593 5602 5605 5611 5622 5610 5621 5620 5622 5613 5604 5607 5587 5588 5608 5604 5632 5607 5614 5602 5597 5592 5616 5619 5613 5610 5608 5601 5598 5593
5352 5352 5353 5355 5356 5356 5356 5356 5359 5367 5379 5397 5415 5435 5452 5470 5483 5498 5518 5533 5553 5570 5573 5582 5586 5595 5601 5605 5610 5610 5616 5629 5628 5636 5616 5606 5585 5608 5581 5606 5619 5624 5621 5608 5604 5617 5615 5611 5608 5600 5595 5587 5584 5578
5354 5354 5355 5355 5352 5353 5355 5360 5366 5378 5398 5411 5428 5444 5459 5476 5488 5500 5514 5535 5546 5560 5552 5558 5576 5582 5593 5600 5609 5616 5624 5627 5626 5620 5603 5581 5585 5619 5604 5615 5614 5616 5614 5606 5606 5610 5606 5591 5586 5577 5575 5571 5568 5563
5367 5367 5366 5363 5362 5364 5368 5373 5383 5399 5419 5432 5444 5456 5468 5481 5494 5505 5512 5538 5542 5547 5548 5552 5566 5573 5585 5592 5594 5600 5609 5611 5607 5590 5571 5596 5606 5601 5602 5603 5600 5612 5606 5592 5586 5588 5585 5572 5566 5565 5562 5556 5551 5543
5397 5392 5390 5387 5388 5393 5404 5410 5414 5424 5440 5451 5460 5467 5477 5489 5496 5501 5520 5538 5543 5552 5554 5542 5550 5561 5575 5582 5582 5587 5595 5602 5599 5586 5587 5595 5595 5596 5575 5586 5599 5596 5593 5585 5582 5576 5566 5558 5553 5549 5539 5532 5524 5516
5427 5426 5426 5425 5425 5427 5435 5439 5444 5453 5458 5467 5473 5478 5487 5495 5505 5519 5528 5534 5540 5551 5545 5527 5538 5548 5560 5567 5569 5571 5580 5579 5587 5578 5575 5583 5583 5583 5562 5578 5583 5578 5575 5567 5565 5560 5550 5548 5533 5523 5514 5504 5495 5486
5454 5452 5453 5449 5450 5455 5457 5462 5464 5468 5472 5478 5482 5487 5495 5499 5511 5517 5518 5530 5537 5546 5541 5522 5522 5534 5545 5549 5549 5555 5560 5564 5557 5556 5562 5566 5565 5565 5566 5572 5569 5564 5557 5551 5548 5545 5535 5523 5509 5498 5489 5480 5472 5464
5474 5474 5475 5475 5475 5475 5474 5477 5481 5484 5486 5487 5489 5493 5498 5510 5519 5520 5524 5528 5534 5537 5514 5513 5517 5527 5539 5535 5535 5539 5546 5532 5545 5543 5554 5560 5546 5549 5557 5555 5552 5545 5540 5537 5531 5523 5514 5499 5486 5477 5471 5464 5457 5453
5487 5487 5489 5491 5492 5492 5492 5491 5491 5492 5493 5495 5499 5509 5498 5504 5505 5512 5513 5520 5514 5515 5516 5520 5519 5524 5531 5529 5523 5529 5526 5531 5538 5534 5546 5544 5535 5534 5530 5530 5530 5530 5528 5522 5508 5494 5484 5477 5471 5467 5463 5455 5447 5434
5490 5492 5493 5496 5497 5498 5500 5501 5502 5500 5499 5512 5509 5496 5496 5502 5508 5506 5503 5507 5511 5509 5516 5523 5523 5521 5519 5524 5515 5512 5518 5520 5530 5533 5534 5534 5530 5515 5516 5515 5517 5513 5505 5498 5490 5480 5473 5467 5460 5449 5437 5426 5416 5406
5487 5490 5491 5494 5497 5498 5499 5500 5501 5507 5514 5521 5519 5509 5504 5511 5499 5498 5494 5497 5508 5513 5503 5512 5514 5513 5506 5518 5510 5504 5509 5511 5523 5520 5514 5529 5503 5505 5501 5497 5493 5487 5481 5473 5467 5462 5456 5450 5440 5427 5415 5404 5395 5384
5482 5486 5487 5490 5493 5493 5498 5503 5509 5513 5517 5519 5507 5491 5502 5489 5498 5501 5496 5503 5500 5494 5496 5502 5500 5498 5499 5506 5497 5501 5506 5514 5516 5505 5520 5507 5496 5493 5487 5483 5476 5471 5465 5460 5453 5442 5432 5420 5410 5400 5390 5383 5377 5367
5474 5478 5481 5484 5488 5493 5493 5500 5506 5511 5512 5491 5487 5482 5484 5490 5488 5489 5494 5497 5482 5488 5493 5493 5495 5497 5493 5491 5493 5496 5488 5499 5498 5502 5508 5488 5484 5476 5473 5468 5462 5452 5441 5437 5426 5414 5404 5395 5385 5376 5369 5361 5353 5347
5470 5472 5475 5472 5477 5486 5498 5499 5506 5504 5489 5473 5472 5471 5463 5455 5461 5464 5468 5473 5474 5485 5490 5493 5493 5494 5489 5487 5487 5479 5482 5492 5506 5507 5482 5474 5467 5462 5457 5451 5438 5427 5418 5413 5405 5392 5385 5378 5372 5362 5352 5345 5335 5325
5469 5473 5461 5463 5472 5481 5486 5492 5491 5480 5463 5460 5454 5459 5454 5462 5461 5461 5462 5466 5467 5475 5487 5495 5488 5482 5485 5487 5489 5486 5499 5504 5485 5467 5457 5454 5450 5448 5442 5429 5420 5416 5407 5397 5386 5377 5368 5360 5354 5346 5336 5327 5320 5310
5463 5450 5453 5462 5468 5474 5480 5477 5465 5450 5444 5446 5446 5443 5452 5453 5454 5451 5454 5455 5459 5470 5475 5485 5486 5478 5479 5478 5477 5473 5473 5460 5447 5442 5438 5436 5433 5431 5423 5412 5402 5398 5391 5381 5371 5361 5352 5344 5336 5330 5324 5313 5306 5298
5446 5443 5450 5457 5463 5465 5455 5449 5445 5442 5437 5435 5439 5437 5435 5436 5440 5441 5441 5446 5458 5462 5468 5467 5473 5470 5474 5471 5458 5444 5431 5424 5423 5424 5422 5418 5421 5413 5405 5397 5390 5381 5369 5359 5350 5342 5335 5330 5324 5314 5305 5294 5288 5278
5436 5441 5446 5451 5455 5447 5434 5428 5433 5429 5423 5423 5422 5423 5425 5425 5426 5430 5435 5441 5447 5454 5460 5462 5457 5453 5442 5434 5429 5419 5414 5410 5406 5401 5398 5398 5396 5390 5381 5373 5365 5356 5348 5341 5336 5327 5315 5307 5298 5290 5280 5272 5264 5255
5434 5438 5442 5446 5453 5438 5424 5421 5426 5425 5419 5415 5416 5418 5418 5417 5416 5420 5426 5432 5437 5436 5425 5420 5407 5401 5406 5403 5408 5407 5402 5396 5392 5386 5377 5371 5366 5361 5353 5346 5339 5331 5323 5316 5310 5306 5299 5289 5275 5265 5255 5249 5240 5233
5429 5428 5435 5440 5437 5430 5415 5413 5408 5406 5407 5407 5406 5409 5409 5408 5409 5410 5411 5414 5410 5395 5390 5384 5384 5385 5386 5390 5392 5393 5387 5386 5380 5376 5365 5355 5347 5342 5334 5328 5323 5318 5310 5301 5292 5277 5270 5262 5251 5243 5236 5230 5221 5216
5412 5415 5419 5419 5411 5405 5403 5401 5401 5400 5400 5399 5402 5402 5402 5400 5398 5394 5399 5391 5372 5366 5368 5369 5370 5369 5367 5367 5365 5364 5362 5361 5357 5353 5346 5339 5332 5323 5316 5309 5301 5291 5283 5274 5266 5257 5249 5237 5226 5222 5218 5212 5206 5203
5402 5405 5397 5394 5392 5388 5379 5395 5391 5395 5393 5390 5394 5392 5388 5383 5380 5387 5373 5361 5349 5342 5344 5346 5348 5348 5345 5343 5342 5340 5338 5334 5328 5323 5318 5312 5305 5299 5291 5283 5276 5269 5259 5248 5242 5235 5225 5215 5211 5204 5201 5196 5191 5188
5387 5376 5373 5374 5374 5364 5367 5372 5380 5380 5378 5380 5378 5371 5364 5364 5368 5367 5347 5333 5328 5328 5328 5327 5328 5327 5324 5320 5315 5311 5312 5312 5307 5301 5296 5290 5282 5273 5264 5254 5245 5237 5232 5226 5220 5213 5208 5201 5194 5191 5186 5179 5174 5168
5373 5352 5360 5362 5362 5366 5364 5361 5361 5366 5361 5364 5361 5354 5349 5353 5354 5345 5328 5314 5303 5302 5303 5310 5311 5308 5303 5294 5288 5283 5282 5284 5278 5271 5265 5261 5254 5247 5239 5229 5219 5211 5207 5204 5199 5194 5189 5183 5179 5173 5166 5161 5156 5150
5346 5335 5342 5345 5347 5354 5354 5352 5350 5348 5352 5350 5338 5337 5341 5345 5334 5310 5296 5284 5278 5275 5275 5278 5288 5278 5270 5267 5262 5256 5252 5252 5248 5240 5233 5230 5228 5226 5221 5216 5209 5193 5186 5181 5177 5173 5169 5165 5159 5153 5148 5144 5138 5134
5330 5329 5328 5328 5332 5337 5335 5334 5338 5342 5340 5338 5333 5334 5336 5328 5299 5279 5264 5255 5255 5250 5248 5249 5252 5250 5244 5237 5231 5227 5223 5222 5220 5214 5208 5203 5199 5195 5192 5188 5181 5170 5167 5163 5157 5151 5146 5142 5138 5134 5129 5126 5120 5114
5307 5306 5310 5311 5316 5321 5321 5324 5323 5314 5313 5308 5317 5301 5297 5282 5261 5245 5238 5233 5230 5227 5225 5222 5219 5217 5215 5212 5209 5207 5203 5200 5198 5195 5191 5187 5183 5176 5170 5165 5158 5152 5148 5144 5137 5132 5126 5122 5117 5112 5109 5104 5097 5091
5290 5294 5300 5293 5303 5298 5293 5297 5289 5275 5271 5284 5290 5268 5247 5226 5219 5220 5216 5214 5212 5211 5209 5207 5202 5198 5195 5192 5190 5187 5185 5184 5188 5185 5182 5178 5171 5159 5151 5146 5142 5137 5131 5125 5120 5115 5110 5104 5099 5093 5087 5082 5076 5071
5278 5282 5290 5286 5285 5279 5267 5262 5252 5249 5253 5251 5238 5222 5213 5205 5199 5200 5200 5200 5199 5195 5192 5191 5188 5188 5187 5184 5178 5171 5164 5159 5155 5154 5153 5147 5141 5136 5133 5128 5122 5116 5111 5106 5101 5096 5090 5085 5078 5073 5069 5065 5060 5054
5269 5277 5278 5276 5266 5259 5253 5248 5246 5242 5239 5232 5232 5222 5210 5198 5189 5184 5183 5185 5184 5184 5182 5177 5171 5168 5165 5161 5159 5158 5151 5142 5135 5130 5124 5121 5119 5116 5112 5106 5102 5097 5091 5086 5080 5073 5068 5063 5058 5052 5048 5044 5041 5037
5262 5260 5268 5268 5255 5247 5249 5251 5249 5241 5234 5224 5218 5212 5208 5205 5189 5172 5165 5169 5169 5165 5160 5158 5154 5147 5142 5141 5138 5131 5124 5123 5119 5112 5107 5101 5097 5092 5088 5084 5079 5074 5069 5064 5057 5052 5047 5043 5039 5034 5030 5026 5021 5015
5256 5255 5254 5255 5250 5248 5238 5241 5238 5224 5219 5212 5201 5196 5189 5184 5170 5158 5150 5147 5144 5142 5140 5137 5134 5131 5127 5123 5118 5115 5111 5107 5100 5095 5089 5083 5076 5070 5064 5060 5055 5050 5045 5041 5037 5032 5028 5025 5021 5017 5012 5007 5003 5000